Flag for Poland Weather past 2 weeks in Elbląg, Poland

Now
66 °F

Partly sunny.


Feels Like: 66 °F
Forecast: 68 / 92 °F
Wind: 2 mph from East

Location: Hel

Current Time: Aug 2, 2014 at 8:37:12 AM

Latest Report: Aug 2, 2014 at 7:00 AM


Visibility: 13 mi

Pressure: 30.00 "Hg

Humidity: 94%

Dew point: 64 °F

Location of ElblągLocation

Historic Weather in Elbląg — Graph

°F

Elbląg temperature yesterday

Maximum temperature yesterday: 75 °F (at 5:00 PM)
Minimum temperature yesterday: 64 °F (at 5:00 AM)
Average temperature yesterday: 69 °F

Past Weeks' High & Low Weather Summary

 TemperatureHumidityPressure
High84 °F (Jul 30, 2:00 PM)99% (Jul 29, 7:00 AM)30.20 "Hg (Jul 29, 7:00 AM)
Low56 °F (Jul 19, 5:00 AM)55% (Jul 18, 1:00 PM)29.69 "Hg (Jul 30, 7:00 PM)
Average71 °F81%29.99 "Hg
* Reported Jul 18 7:00 AM — Aug 2 7:00 AM, Elbląg, Weather by CustomWeather, © 2014

Note: Actual official high and low records may vary slightly from our data, if they occured in-between our weather recording intervals... More about our weather records

Advertising

Elbląg weather history for previous 24 hours

 ConditionsComfort  
Time TempWeatherWind HumidityBarometerVisibility
7:00 AM
Aug 2
66 °FPartly sunny.2 mph94%30.00 "Hg12 mi
6:00 AM64 °FScattered clouds.1 mph92%30.00 "Hg12 mi
5:00 AM62 °FPartly sunny.2 mph92%30.01 "Hg12 mi
4:00 AM63 °FPassing clouds.1 mph91%30.01 "Hg6 mi
3:00 AM63 °FClear.1 mph91%30.02 "Hg12 mi
2:00 AM63 °FClear.1 mph89%30.02 "Hg12 mi
1:00 AM65 °FPassing clouds.2 mph85%30.03 "Hg12 mi
12:00 AM66 °FPassing clouds.2 mph92%30.02 "Hg12 mi
11:00 PM
Aug 1
66 °FPassing clouds.2 mph90%30.02 "Hg12 mi
10:00 PM67 °FPassing clouds.2 mph83%30.02 "Hg16 mi
9:00 PM68 °FPassing clouds.3 mph80%30.01 "Hg16 mi
8:00 PM70 °FPartly sunny.3 mph76%30.01 "Hg16 mi
7:00 PM72 °FPartly sunny.3 mph72%30.00 "Hg16 mi
6:00 PM73 °FPartly sunny.2 mph68%30.00 "Hg16 mi
5:00 PM75 °FOvercast.3 mph65%29.99 "Hg16 mi
4:00 PM73 °FOvercast.2 mph63%30.00 "Hg16 mi
3:00 PM74 °FPartly sunny.3 mph64%30.00 "Hg19 mi
2:00 PM74 °FPartly sunny.3 mph66%30.01 "Hg19 mi
1:00 PM73 °FPartly sunny.2 mph69%30.01 "Hg19 mi
12:00 PM74 °FScattered clouds.3 mph70%30.02 "Hg19 mi
11:00 AM73 °FScattered clouds.2 mph69%30.01 "Hg19 mi
10:00 AM71 °FScattered clouds.2 mph74%30.01 "Hg16 mi
9:00 AM69 °FScattered clouds.2 mph79%30.01 "Hg16 mi
8:00 AM67 °FScattered clouds.2 mph83%30.00 "Hg12 mi
Weather by CustomWeather, © 2014

See weather overviewHow to use our weather pages